{"data":{"norad_id":41038,"intl_designator":"2015-069A","name":"YAOGAN-29","alt_names":[],"object_type":"PAYLOAD","status":"ACTIVE","operator":null,"country":"PRC","launch_date":"2015-11-26","launch_site_code":"TAISC","launch_vehicle":null,"mission":null,"orbit_class":"UNKNOWN","rcs_meters":5.0279,"size_class":null,"mass_kg":null,"dimensions":null,"purposes":["earth_obs"],"wikipedia_slug":null,"has_3d_model":false,"image_url":null,"decayed_at":null,"tle_current":{"epoch":"2026-09-20T05:43:03.249984Z","epoch_age_seconds":37164,"freshness":"FRESH","line1":"1 41038U 15069A   26263.23823206  .00000244  00000+0  36551-4 0  9995","line2":"2 41038  97.9989 292.0006 0002929  80.3489 279.8055 14.83146272584711","mean_motion":14.83146272,"eccentricity":0.0002929,"inclination_deg":97.9989,"raan_deg":292.0006,"arg_perigee_deg":80.3489,"mean_anomaly_deg":279.8055,"bstar":3.6551e-5,"rev_number":58471,"period_min":97.09089569825,"perigee_km":617.36086194014,"apogee_km":621.46002523259,"semimajor_km":6997.5474435864,"source":"CELESTRAK","updated_at":"2026-09-20T09:00:33.965437Z"}}}